User: anonymous   Login
Location: Unspecified
(0.0000°N, 0.0000°E)
Time: 13:26:28
(UTC+00:00)
Language:

TECHNOSAT - Orbit

View from above orbital plane
View from above orbital plane
View from above satellite
View from above satellite

Ground track
Ground track

The orbit data is extracted from the following two-line orbital elements,

1 42829U 17042E   18348.17024783  .00000069  00000-0  12472-4 0  9990
2 42829  97.5817 243.5675 0013394 326.3866  33.6502 14.90899516 77140
Epoch (UTC): 14 December 2018 04:05:09
Eccentricity: 0.0013394
inclination: 97.5817°
perigee height: 586 km
apogee height: 604 km
right ascension of ascending node: 243.5675°
argument of perigee: 326.3866°
revolutions per day: 14.90899516
mean anomaly at epoch: 33.6502°
orbit number at epoch: 7714

The dashed part of the orbit path shows where the satellite is in the earth's shadow,  

DLR